Location: Village de las Huertas
(35.3014°N, 106.4095°W)
Time: 08:33:47
(UTC+00:00)

Cosmos 2058 Rocket - Pass Details

Date: 29 October 2020
Orbit: 610 x 640 km, 82.5° (Epoch: 04 December)

Event Time Altitude Azimuth Distance (km) Brightness Sun altitude
Rises 12:14:18 0° 351° (N) 2,939 6.4 -14.9°
Reaches altitude 10° 12:16:33 10° 351° (N) 2,023 5.5 -14.5°
Maximum altitude 12:21:02 80° 264° (W) 644 3.0 -13.6°
Drops below altitude 10° 12:25:27 10° 178° (S) 1,990 5.8 -12.7°
Sets 12:27:39 0° 178° (S) 2,888 6.6 -12.2°
